TIME,DELAY(SENSOR),PRES,OXYGEN,RAWTEMP,T(OPTODE),TCPHASE,FLUOR,BETA(BETA700),BETA(BETA412),BETA(BETA440),CDOM,C(CSC),ED(ED411.90),ED(ED443.80),ED(ED489.40),ED(ED554.70),LU(LU412.20),LU(LU443.80),LU(LU489.40),LU(LU555.00),COMP,TILTX,TILTY,CHECK
1347745709,5804,858.8099975585938000,169.2532043457031200,394.0574035644531000,10.7837600708007810,38.1844596862793000,52,101,98,78,75,13333,2146958089,2147513133,2147281307,2147503670,2147090624,2146934528,2147703177,2147119917,2869,-1,9,20292
1347749305,5804,984.7899780273438000,183.4898071289062500,475.9189147949219000,8.2747106552124020,38.5465888977050800,52,102,98,86,77,13153,2146962468,2147519570,2147290166,2147519277,2147092297,2146928201,2147714176,2147117705,1333,-1,9,8601
1347752905,5806,1005.2700195312500000,193.2839965820312500,490.5960998535156000,7.8209500312805180,38.1569786071777340,52,100,99,78,76,13149,2146961371,2147516864,2147292571,2147520384,2147089654,2146922532,2147721014,2147115273,2876,-1,8,18585
1347756505,5808,1014.1599731445312000,195.1123962402343800,492.5577087402344000,7.7602000236511230,38.0746803283691400,53,99,98,79,77,13149,2146959204,2147517394,2147290166,2147518464,2147090971,2146923666,2147719762,2147119972,153,-1,8,47638
1347760105,5808,1017.4400024414062000,196.0222930908203000,493.7615966796875000,7.7229042053222660,38.0387611389160160,53,99,100,78,78,13148,2146961225,2147514907,2147294162,2147515401,2147091721,2146922112,2147719259,2147121408,563,-1,8,20436
1347763705,5808,1019.8699951171875000,195.9367065429687500,494.9913024902344000,7.6848020553588870,38.0653686523437500,52,102,99,76,76,13147,2146962925,2147517193,2147292269,2147518582,2147091840,2146925851,2147719552,2147119204,75,-1,8,31760
1347767305,5805,1020.2199707031250000,195.5811004638672000,496.3128967285156000,7.6438388824462890,38.1109085083007800,52,100,97,77,77,13144,2146960356,2147515236,2147290724,2147520950,2147092288,2146926564,2147719643,2147119030,3266,-1,8,29970
1347770905,5807,1025.4799804687500000,197.4512023925781200,496.4906005859375000,7.6383299827575680,37.9960289001464840,52,120,99,79,77,13146,2146959414,2147514176,2147294884,2147521014,2147094016,2146924333,2147719606,2147121161,39,-1,8,11047
1347774505,5803,1020.7800292968750000,196.6831970214843800,497.9007873535156000,7.5946049690246580,38.0692100524902340,52,106,99,79,77,13142,2146957723,2147514523,2147294016,2147518354,2147089910,2146924608,2147721106,2147120484,3211,-1,8,41654
1347778105,5807,1024.2700195312500000,199.8937988281250000,498.7034912109375000,7.5697112083435060,37.8828392028808600,51,102,100,78,77,13140,2146959350,2147516845,2147294619,2147520685,2147091117,2146925138,2147716032,2147118217,218,-1,8,22973
1347781705,5806,1026.9100341796875000,198.1253967285156200,498.5968017578125000,7.5730199813842770,37.9909896850585940,53,102,100,78,77,13142,2146957101,2147516480,2147293558,2147523282,2147093156,2146924562,2147719469,2147118409,3403,-1,8,20077
1347785305,5803,1022.5200195312500000,197.6259002685547000,498.8114929199219000,7.5663599967956540,38.0254211425781250,52,99,99,77,77,13136,2146960118,2147514121,2147290688,2147518555,2147090230,2146924918,2147722331,2147119753,3477,-1,8,44772
1347788905,5805,1022.6799926757812000,200.9779052734375000,499.7825927734375000,7.5362391471862790,37.8344116210937500,53,103,98,78,77,13139,2146957549,2147518134,2147293732,2147517019,2147094710,2146928128,2147719003,2147118299,3509,-1,8,58472
1347792505,5806,1030.3800048828125000,199.6118011474609400,499.0578002929687500,7.5587210655212400,37.9071006774902340,52,100,97,78,77,13134,2146959625,2147516068,2147290294,2147520502,2147091968,2146925129,2147721773,2147120009,3459,-1,8,58606
1347796105,5807,1030.3100585937500000,198.0536956787109400,498.7186889648437500,7.5692410469055180,37.9972915649414060,52,100,97,77,76,13135,2146960566,2147520091,2147294308,2147520118,2147091254,2146926253,2147724425,2147117824,1,-1,8,19706
1347799705,5806,1029.6199951171875000,198.3632049560547000,497.9090881347656000,7.5943479537963870,37.9636192321777340,52,100,98,77,78,13134,2146958811,2147513435,2147290102,2147518747,2147088192,2146929691,2147718198,2147119149,416,0,8,28556
1347803305,5807,1028.7600097656250000,198.6566009521484400,498.8601074218750000,7.5648550987243650,37.9628105163574200,53,99,98,78,77,13135,2146957604,2147515840,2147294966,2147518400,2147090560,2146925568,2147714486,2147117677,407,-1,8,49401
1347806905,5803,1030.5500488281250000,199.2998962402343800,499.4148864746094000,7.5476431846618650,37.9315109252929700,52,102,98,77,77,13132,2146965641,2147517257,2147293988,2147522285,2147090450,2146922121,2147722102,2147120064,3376,-1,8,28387
1347810505,5806,1027.6500244140625000,199.3854064941406200,499.3810119628906000,7.5486960411071780,37.9261398315429700,53,103,98,77,77,13134,2146958957,2147513965,2147290395,2147519433,2147091337,2146928100,2147720356,2147118134,3516,-1,8,25305
1347814105,5803,1030.9100341796875000,200.7964935302734400,499.8010864257812500,7.5356631278991700,37.8462982177734400,52,100,98,77,77,13131,2146959945,2147513938,2147294052,2147521444,2147093586,2146930806,2147717421,2147116928,3029,-1,8,59635
1347817705,5806,1027.4699707031250000,200.9425048828125000,501.4299926757812500,7.4851231575012210,37.8660316467285160,53,101,99,78,76,13132,2146958308,2147518281,2147293101,2147521499,2147094134,2146923355,2147715437,2147116443,2526,-1,8,8635
1347821305,5806,1027.1999511718750000,200.9344024658203000,501.5338134765625000,7.4819030761718750,37.8680686950683600,53,102,98,77,76,13129,2146955300,2147518372,2147293979,2147521389,2147089142,2146927844,2147719094,2147119497,41,0,8,9075
1347824905,5805,1032.6800537109375000,200.6846923828125000,501.6416015625000000,7.4785552024841310,37.8854217529296900,52,102,99,78,76,13132,2146961051,2147518619,2147293641,2147521572,2147093897,2146923821,2147720493,2147121481,3487,-1,8,13454
1347828505,5805,1029.6400146484375000,200.1139984130859400,501.7492065429687500,7.4752149581909180,37.9220085144043000,53,103,98,78,76,13132,2146960109,2147518610,2147293174,2147519780,2147090614,2146926994,2147722697,2147117869,3323,-1,8,56790
1347832105,5808,1032.3399658203125000,200.6956024169922000,501.5600891113281000,7.4810857772827150,37.8837013244628900,52,104,99,78,77,13130,2146962038,2147516361,2147292772,2147519698,2147091931,2146927030,2147719122,2147118564,122,-1,8,49034
1347835705,5804,1031.0899658203125000,200.7427978515625000,501.5469970703125000,7.4814910888671875,37.8799781799316400,52,100,99,78,77,13130,2146959195,2147512731,2147293110,2147520502,2147091821,2146927378,2147725476,2147118592,3214,-1,8,43799
1347839305,5809,1030.5200195312500000,201.7687072753906200,501.9718017578125000,7.4683070182800290,37.8245010375976560,52,101,99,79,75,13130,2146961801,2147517010,2147291117,2147518043,2147093440,2146924004,2147723008,2147120310,167,-1,8,19145
1347842905,5807,1023.2800292968750000,200.0180053710937500,500.1307067871094000,7.5254387855529785,37.9005393981933600,52,101,99,78,77,13120,2146961472,2147517366,2147296466,2147520576,2147089353,2146930368,2147718372,2147121664,349,0,8,52700
1347846505,5807,1025.3800048828125000,200.2731018066406200,499.4413146972656000,7.5468249320983890,37.8720703125000000,52,103,98,77,76,13119,2146960036,2147516461,2147291876,2147518628,2147091008,2146921472,2147720210,2147117686,222,-1,8,60727
1347850105,5805,1026.2099609375000000,199.1779937744140600,499.6872863769531000,7.5391960144042970,37.9441108703613300,52,100,98,78,77,13117,2146959186,2147514916,2147292580,2147522020,2147090971,2146925220,2147720667,2147118080,207,-1,8,38179
1347853705,5807,1027.4699707031250000,200.0702972412109400,498.8355102539062500,7.5656170845031740,37.8747901916503900,52,101,97,79,77,13118,2146960018,2147517677,2147292635,2147520009,2147092955,2146927332,2147720685,2147116562,433,-1,8,62311
1347857305,5803,1031.7099609375000000,198.4709930419922000,497.4155883789062500,7.6096491813659670,37.9483299255371100,52,100,98,78,77,13117,2146958592,2147517156,2147291931,2147520777,2147092224,2146927506,2147721718,2147118957,3386,-1,8,22350
1347860905,5806,1033.4000244140625000,198.4008941650390600,497.1303100585937500,7.6184949874877930,37.9476203918457000,52,100,100,79,76,13115,2146959488,2147517001,2147292626,2147518930,2147093632,2146925961,2147716141,2147116333,3370,-1,8,25292
1347864505,5808,1026.6999511718750000,199.8934020996093800,498.7981872558594000,7.5667719841003420,37.8843994140625000,53,101,100,78,77,13115,2146959561,2147514889,2147290660,2147519085,2147090870,2146929280,2147720649,2147114971,929,-1,9,40668
1347868105,5807,1025.6999511718750000,198.3175048828125000,498.7525024414062500,7.5681920051574710,37.9809303283691400,52,101,99,78,77,13114,2146959881,2147516854,2147295085,2147521801,2147092187,2146922075,2147718683,2147119670,2917,-1,8,33086
1347871705,5806,1023.7299804687500000,200.1172943115234400,500.6744079589844000,7.5085701942443850,37.9037590026855500,52,105,97,77,77,13114,2146958363,2147516224,2147291126,2147521270,2147089481,2146927122,2147719131,2147119862,3486,-1,8,49673
1347875305,5806,1023.4600219726562000,200.8058013916015600,500.9732055664062500,7.4992990493774410,37.8665885925293000,52,104,99,78,76,13117,2146959753,2147514761,2147294829,2147520557,2147089801,2146926400,2147721289,2147116489,140,-1,8,5040
1347878905,5805,1020.1699829101562000,202.2201995849609400,502.3355102539062500,7.4570198059082030,37.8036994934082000,51,105,98,77,76,13112,2146956690,2147516598,2147294765,2147519259,2147091081,2146927369,2147722651,2147120246,271,0,8,52023
1347882505,5806,1020.8300170898438000,203.7875061035156200,503.7210083007812500,7.4140062332153320,37.7328109741210940,53,100,99,78,77,13117,2146957668,2147516507,2147294336,2147519350,2147090806,2146927597,2147720960,2147118656,3573,-1,8,17425
1347886105,5804,1024.8499755859375000,201.6558990478515600,502.0744018554687500,7.4651241302490230,37.8339500427246100,52,102,100,78,75,13117,2146961782,2147516818,2147293961,2147522468,2147089325,2146921865,2147724050,2147119040,3187,-1,8,10707
1347888956,5804,1030.6300048828125000,201.6656036376953000,500.9208984375000000,7.5009198188781740,37.8129882812500000,53,102,100,78,77,13283,2146960438,2147517165,2147292278,2147521435,2147090066,2146923648,2147721353,2147117741,3110,-1,8,6996
